TimeEDT,TemperatureF,Dew PointF,Humidity,Sea Level PressureIn,VisibilityMPH,Wind Direction,Wind SpeedMPH,Gust SpeedMPH,PrecipitationIn,Events,Conditions,WindDirDegrees,DateUTC
12:58 AM,65.8,63.7,93,29.87,7.0,South,4.6,-,0.01,Rain,Light Rain,190,2013-08-02 04:58:00
1:28 AM,66.2,64.4,94,29.85,5.0,South,5.8,-,N/A,Rain,Light Rain,190,2013-08-02 05:28:00
1:58 AM,65.3,64.9,99,29.85,3.0,South,3.5,-,0.07,Rain,Light Rain,190,2013-08-02 05:58:00
2:28 AM,64.4,64.4,100,29.82,5.0,SE,5.8,-,N/A,Rain,Light Rain,140,2013-08-02 06:28:00
2:46 AM,64.4,64.4,100,29.82,6.0,SSE,6.9,-,N/A,Rain,Light Rain,150,2013-08-02 06:46:00
2:58 AM,64.8,64.4,99,29.83,6.0,SSE,8.1,-,0.05,Rain,Light Rain,160,2013-08-02 06:58:00
3:58 AM,64.2,63.9,99,29.82,3.0,SSE,6.9,-,0.02,Rain,Light Rain,160,2013-08-02 07:58:00
4:09 AM,64.4,64.4,100,29.80,2.0,SSE,6.9,-,N/A,Rain,Rain,150,2013-08-02 08:09:00
4:28 AM,64.4,64.4,100,29.81,4.0,SSE,4.6,-,N/A,Rain,Light Rain,160,2013-08-02 08:28:00
4:58 AM,64.0,63.9,99,29.82,4.0,SSE,4.6,-,0.10,Rain,Light Rain,160,2013-08-02 08:58:00
5:58 AM,63.7,63.5,99,29.83,3.0,SSE,5.8,-,0.11,Rain,Rain,160,2013-08-02 09:58:00
6:13 AM,64.4,64.4,100,29.82,4.0,SSE,4.6,-,N/A,Rain,Light Rain,150,2013-08-02 10:13:00
6:28 AM,64.4,64.4,100,29.81,4.0,SSE,4.6,-,N/A,Rain,Light Rain,160,2013-08-02 10:28:00
6:58 AM,63.9,63.7,99,29.83,1.5,South,5.8,-,0.08,Rain,Light Rain,170,2013-08-02 10:58:00
7:28 AM,64.4,64.4,100,29.82,1.0,SSW,4.6,-,N/A,Rain,Light Rain,200,2013-08-02 11:28:00
7:58 AM,64.2,63.9,99,29.84,1.0,SW,4.6,-,0.06,Rain,Light Rain,220,2013-08-02 11:58:00
8:28 AM,64.4,64.4,100,29.82,3.0,SSW,4.6,-,N/A,,Overcast,210,2013-08-02 12:28:00
8:58 AM,65.7,65.3,99,29.83,4.0,South,4.6,-,0.01,,Overcast,190,2013-08-02 12:58:00
9:58 AM,67.5,66.4,96,29.82,6.0,WSW,4.6,-,N/A,,Overcast,250,2013-08-02 13:58:00
10:58 AM,71.4,67.3,87,29.82,10.0,West,5.8,-,N/A,,Mostly Cloudy,260,2013-08-02 14:58:00
11:13 AM,71.6,66.2,83,29.80,10.0,West,6.9,-,N/A,,Mostly Cloudy,270,2013-08-02 15:13:00
11:41 AM,73.4,66.2,78,29.81,10.0,West,6.9,-,N/A,,Scattered Clouds,260,2013-08-02 15:41:00
11:58 AM,74.8,65.5,73,29.82,10.0,West,6.9,-,N/A,,Scattered Clouds,260,2013-08-02 15:58:00
12:58 PM,78.1,64.6,63,29.80,10.0,SW,4.6,-,N/A,,Scattered Clouds,230,2013-08-02 16:58:00
1:58 PM,80.2,63.3,56,29.79,10.0,SW,8.1,-,N/A,,Scattered Clouds,220,2013-08-02 17:58:00
2:58 PM,79.9,62.4,55,29.77,10.0,WSW,4.6,-,N/A,,Scattered Clouds,240,2013-08-02 18:58:00
3:58 PM,80.6,61.2,51,29.78,10.0,WSW,8.1,-,N/A,,Scattered Clouds,250,2013-08-02 19:58:00
4:58 PM,82.2,55.9,40,29.77,10.0,West,10.4,-,N/A,,Scattered Clouds,270,2013-08-02 20:58:00
5:58 PM,81.0,57.0,44,29.78,10.0,West,8.1,-,N/A,,Scattered Clouds,260,2013-08-02 21:58:00
6:58 PM,77.7,58.3,51,29.79,10.0,SW,3.5,-,N/A,,Scattered Clouds,220,2013-08-02 22:58:00
7:58 PM,73.8,57.6,57,29.81,10.0,South,4.6,-,N/A,,Mostly Cloudy,190,2013-08-02 23:58:00
8:58 PM,72.1,57.2,59,29.83,10.0,SW,4.6,-,N/A,,Partly Cloudy,230,2013-08-03 00:58:00
9:58 PM,70.9,56.7,61,29.84,10.0,WSW,4.6,-,N/A,,Mostly Cloudy,240,2013-08-03 01:58:00
10:58 PM,66.6,59.5,78,29.84,10.0,SSW,3.5,-,N/A,,Mostly Cloudy,210,2013-08-03 02:58:00
11:46 PM,68.0,57.2,68,29.83,10.0,SW,3.5,-,N/A,,Overcast,230,2013-08-03 03:46:00
11:58 PM,68.0,57.7,70,29.84,10.0,SW,4.6,-,N/A,,Overcast,220,2013-08-03 03:58:00